FLOCK 2P-1 (41617 NORAD) Tracking and Keplerian Element Data

This shows tracking and keplerian element data for the satellite.

Feedback or suggestion? Click here.




ElementValue
Catalog41617
NameFLOCK 2P-1
Epoch Orbit9165
Epoch Day46.13821952
Epoch Year2018
RAAN112.1922
Inclination97.4332
Eccentricity0.0009095
Argument of Perigee317.0512
Mean Anonmoly43.0014
Mean Motion15.23862628
Decay Rate9.54E-06
L11 41617U 16040U 18046.13821952 .00000954 00000-0 42480-4 0 9990
L22 41617 97.4332 112.1922 0009095 317.0512 43.0014 15.23862628 91655

Live tracking and technical data element details for FLOCK 2P-1 (NORAD 41617). FLOCK 2P-1 can be tracked NOW for your location showing map with azimuth and elevation plus other details from your city location.

Track the satellite on the map from your city or location and see movement details for azimuth, elevation, latitude, longitude, range, height, and movement on the map or in text.







IsCatalogInMostPopularTable: catalog: 41617, numindb: 109
Update: records affected: 1



GetName: 41617 FLOCK 2P-1

Hit Count: updated at: Fri, 16 Nov 2018 12:24:00 GMT